RH
43 42 38 32 27 27 32 39 45 50 56 62 70 78 80 79 76 75 74 72 70 68 64 61 61 58 54 51 45 37 34 39 45 52 57 58 56 53 52 50 47 43 38 35 34 31 30 31 37 48 66 82 93 99 99 99 99 91 83 78 69 67 75 87 95 100 97 85 71 61 54 65 91 100
44 44 41 36 30 27 30 36 43 51 56 60 64 70 78 81 79 78 77 75 73 70 68 65 64 62 59 57 52 41 36 39 43 48 54 56 56 53 53 51 45 41 40 38 36 32 31 32 33 42 61 80 91 94 94 98 99 91 86 83 75 69 74 85 94 100 98 88 78 69 62 71 92 101
46 45 44 40 34 30 29 33 43 52 58 63 64 66 73 79 81 81 79 79 78 75 73 69 67 66 64 64 60 47 37 36 38 40 44 46 48 49 49 48 44 42 41 38 35 34 33 32 31 41 58 72 80 83 86 93 95 91 91 89 80 76 78 82 91 100 96 87 83 82 85 92 96 97
46 46 45 42 38 33 30 32 40 49 57 65 71 72 73 76 80 83 83 82 81 78 75 72 71 71 70 70 66 52 40 36 37 40 43 43 44 44 45 45 44 42 39 37 35 35 34 33 33 39 51 61 68 75 82 90 95 96 96 92 85 83 84 82 88 97 96 88 82 81 93 103 98 96
48 47 46 44 41 36 32 33 37 44 50 58 69 77 81 81 80 81 84 84 82 80 77 75 74 73 73 70 62 52 42 38 39 44 47 48 48 48 46 44 42 39 36 35 35 36 37 36 37 39 42 48 59 71 80 89 96 99 94 89 88 88 89 88 88 92 95 95 89 83 91 102 101 98
52 49 48 46 44 39 35 34 36 40 46 51 58 67 77 84 84 82 83 85 85 81 76 76 75 73 71 65 54 47 44 42 45 49 50 50 50 49 47 44 41 38 37 37 36 37 38 37 37 37 36 40 51 65 77 87 94 95 91 89 90 90 92 93 91 89 91 95 97 93 92 100 103 100
62 53 50 48 46 42 38 37 36 38 45 51 54 55 62 72 79 82 82 82 83 81 75 73 72 67 63 58 48 44 45 48 52 54 52 51 51 50 48 46 43 39 38 37 36 37 38 37 35 33 31 36 45 57 71 83 90 92 91 91 92 92 94 95 93 90 89 91 98 99 95 99 103 100
70 61 54 50 48 45 41 39 37 37 44 52 56 55 54 58 65 72 75 76 77 77 73 68 66 63 59 54 47 44 48 53 58 57 55 55 55 53 52 49 45 41 39 38 36 36 38 37 34 30 29 32 38 48 63 77 86 91 91 91 93 95 96 97 96 93 88 87 96 101 97 99 102 100
76 70 62 54 50 48 45 42 38 37 43 52 57 58 55 53 55 60 66 71 72 73 71 67 65 64 60 54 49 47 52 58 60 59 57 59 59 56 53 49 46 42 40 38 36 36 39 40 35 30 27 27 32 40 53 68 82 89 90 90 94 97 98 99 99 96 90 86 93 100 98 98 100 100
80 75 70 62 54 50 49 45 39 37 42 51 58 60 57 55 56 58 60 66 69 70 69 67 66 63 57 53 51 52 58 64 65 62 59 60 60 59 53 47 45 45 43 42 40 37 38 39 36 31 26 25 28 34 44 59 74 85 89 90 94 98 99 99 100 98 92 85 89 98 98 97 100 101
80 76 76 71 62 55 51 47 42 38 41 50 58 62 60 58 60 62 62 63 65 66 65 64 63 60 57 56 56 57 64 69 69 66 66 63 58 56 53 48 45 46 46 46 44 40 38 38 36 31 25 23 26 29 36 48 64 79 87 89 93 98 100 100 99 100 95 85 84 95 98 96 99 101
80 76 77 77 72 65 56 49 45 41 41 49 59 63 62 59 61 64 65 65 65 64 64 64 63 63 62 60 60 63 67 71 69 68 73 71 60 55 54 49 47 45 43 43 43 42 41 39 35 31 26 27 33 33 34 40 53 69 83 89 92 94 97 100 99 99 98 89 81 90 98 97 98 102
85 81 77 78 79 74 64 55 48 44 43 49 58 63 62 60 61 63 65 67 67 66 67 67 67 69 67 61 62 65 68 71 70 70 75 74 67 64 57 50 52 53 46 40 38 41 43 37 32 31 31 35 41 40 38 40 44 55 73 87 92 92 94 99 100 97 97 93 83 87 97 97 97 101
89 87 81 80 82 80 73 62 53 48 47 49 57 63 61 60 62 63 65 65 65 65 64 61 62 65 62 58 61 65 68 73 74 73 75 75 72 71 59 48 57 65 55 42 38 43 45 36 30 33 34 35 40 42 43 46 45 47 62 79 89 93 92 94 99 99 96 94 86 86 95 98 98 100
89 92 88 84 83 83 79 70 59 53 50 49 57 65 64 59 59 60 62 62 61 61 59 57 58 60 60 62 66 69 71 75 76 75 78 77 75 73 62 51 57 65 61 50 40 40 42 37 35 38 36 31 35 41 47 52 50 51 63 74 81 90 93 91 95 99 98 95 90 87 93 98 98 100
91 92 91 88 87 86 84 77 67 58 52 50 57 68 70 68 66 65 63 62 64 67 68 72 74 73 74 75 74 76 77 78 78 78 77 76 77 78 73 62 57 60 61 50 38 42 54 54 52 55 51 40 34 39 52 60 56 59 74 79 75 81 91 92 92 95 98 97 92 89 93 98 99 100
93 91 91 90 90 89 87 83 74 63 54 51 58 70 75 77 82 86 84 80 80 81 84 87 86 83 83 82 78 80 82 79 78 75 71 76 84 86 80 68 59 58 57 46 39 57 74 67 59 64 63 50 38 40 61 75 69 70 85 91 82 79 85 91 90 91 96 97 93 91 94 98 99 100
95 92 89 88 90 91 91 88 79 66 58 54 59 70 73 73 82 94 99 98 96 95 93 90 87 85 86 83 79 81 81 77 74 70 72 82 88 82 75 70 63 55 50 47 53 73 84 73 65 66 59 52 50 54 71 89 88 85 92 98 94 86 83 88 91 89 91 94 93 92 95 98 100 100
99 95 91 88 89 92 95 93 82 69 61 59 64 70 68 65 71 83 94 99 100 100 96 89 86 88 89 85 80 78 76 72 70 71 77 84 84 78 75 71 67 60 57 61 71 83 91 87 78 71 64 68 74 69 69 79 84 85 88 94 98 96 89 88 91 90 89 90 90 93 95 98 100 100
100 98 94 91 90 91 94 94 86 77 74 72 72 71 66 62 65 75 88 97 99 100 98 93 88 87 87 84 79 77 75 74 76 79 82 81 82 83 77 66 68 79 83 84 84 87 95 97 86 75 78 89 93 84 77 73 65 61 67 77 87 93 93 93 92 91 90 87 86 88 91 96 101 101
99 98 96 93 92 90 92 94 90 88 91 90 81 71 65 64 68 75 87 98 100 100 100 99 93 87 86 87 85 84 84 84 89 88 82 83 91 93 82 67 69 84 95 96 93 90 95 100 91 80 83 93 97 96 95 87 71 57 54 62 72 78 83 89 90 89 89 87 84 82 83 89 97 98
95 96 96 97 97 92 90 93 93 93 98 100 91 76 66 67 74 80 91 99 100 100 100 101 98 92 92 96 97 97 96 95 96 88 81 90 101 98 91 82 75 79 91 98 97 94 96 100 95 82 76 83 95 101 101 95 87 76 62 59 69 76 80 86 89 87 86 86 84 81 77 79 87 93
97 97 98 100 101 95 91 96 98 96 98 99 94 86 79 78 78 82 92 99 100 99 99 100 100 98 97 99 100 100 100 100 100 94 89 96 102 96 94 96 89 84 91 99 99 97 95 97 98 91 80 78 86 97 101 99 98 95 78 64 72 87 94 97 98 94 90 87 85 83 76 71 74 81
99 99 100 101 97 91 93 98 97 97 100 97 92 92 88 81 77 81 91 98 100 100 99 99 100 100 99 100 100 100 100 100 100 100 98 99 101 98 96 101 99 91 90 98 101 96 89 89 93 96 96 92 88 92 100 101 98 99 90 76 79 90 93 94 95 92 88 87 86 84 79 71 67 68
100 99 99 98 91 86 91 98 96 98 102 99 95 91 79 73 79 86 89 95 100 101 101 100 99 99 99 99 100 100 100 100 99 101 101 99 100 101 98 101 101 89 83 95 102 94 85 84 86 88 91 92 88 90 98 101 99 99 98 92 90 89 87 90 92 85 78 79 83 82 78 72 67 62
98 98 99 95 89 85 89 96 100 100 101 101 100 91 77 76 88 91 89 96 101 100 101 101 98 98 97 95 97 98 99 100 98 97 98 97 99 100 97 98 96 81 75 90 100 94 88 86 87 89 88 85 82 86 95 100 99 99 99 99 97 94 93 96 95 83 70 70 79 83 81 76 71 63
96 98 100 95 91 89 87 91 100 101 99 100 101 97 89 89 93 94 96 101 101 99 102 101 97 97 95 93 95 95 92 91 90 89 90 92 94 93 89 89 86 75 73 84 91 92 90 83 82 92 95 85 77 81 90 98 98 98 99 100 99 97 97 98 96 89 76 68 71 78 82 81 77 72
98 101 100 94 92 90 86 91 100 101 99 100 100 100 99 98 99 100 101 102 100 100 101 100 97 96 94 91 91 88 84 84 87 89 88 89 90 89 89 92 88 78 76 80 82 84 82 74 78 94 99 88 77 79 86 93 96 97 98 99 99 98 98 97 97 96 87 71 65 68 73 73 71 72
100 101 99 94 92 90 90 96 102 100 99 101 100 100 100 100 100 101 100 100 100 100 99 98 95 91 87 85 84 85 89 92 92 92 90 88 87 89 92 97 92 80 74 74 76 78 74 67 74 89 92 82 75 78 81 86 94 98 97 98 99 98 99 97 95 95 89 74 62 58 59 61 60 62
100 100 98 97 96 96 97 101 101 99 99 100 99 100 100 99 99 100 100 100 100 99 98 93 88 87 89 90 89 92 96 96 93 93 94 91 88 86 89 93 88 77 68 66 69 72 70 66 69 77 79 73 71 76 79 80 86 91 92 97 100 98 98 98 95 96 94 87 82 77 71 70 72 69
100 100 99 99 99 99 98 100 100 100 100 99 99 100 100 99 100 100 98 97 95 92 90 88 88 93 95 92 90 92 92 92 93 94 93 93 92 90 91 93 90 83 75 68 66 65 65 65 65 67 70 69 68 72 75 74 74 77 84 95 100 98 99 99 97 96 91 84 88 95 94 91 90 87
100 100 99 100 101 100 99 99 100 100 99 98 100 101 99 99 101 99 97 97 94 88 88 91 93 93 89 85 88 91 89 91 97 98 93 92 93 93 93 91 85 81 77 72 68 62 57 58 60 60 65 69 69 67 67 68 70 70 75 88 94 93 97 100 99 99 92 83 82 86 92 97 98 95
99 100 100 100 100 100 99 100 100 99 98 98 98 99 100 100 100 99 100 100 94 88 90 93 92 90 88 88 92 95 92 89 95 98 97 97 98 97 97 94 88 82 79 77 76 69 59 56 58 61 66 72 72 66 60 62 68 68 69 78 87 90 95 99 99 99 99 96 90 84 86 94 98 97
99 100 100 100 100 99 98 98 98 99 100 100 98 98 99 99 98 99 101 98 90 87 91 91 89 94 98 96 95 98 95 92 94 94 92 95 101 101 98 98 97 95 90 86 86 84 77 70 70 74 76 76 74 68 60 58 64 66 64 69 80 88 93 96 97 97 97 98 98 93 92 96 98 99
100 100 100 100 100 100 96 92 91 95 99 101 99 98 99 98 97 98 101 99 92 89 90 89 90 97 101 99 99 99 94 92 97 96 88 89 99 103 99 97 98 99 97 92 92 95 95 90 88 89 85 76 71 69 63 57 59 62 60 61 71 86 94 97 99 96 92 94 99 100 98 98 98 98
100 100 100 99 100 101 96 88 85 89 95 99 100 100 100 99 98 97 100 100 97 94 92 90 94 100 101 99 98 96 89 86 91 95 93 92 95 100 101 98 97 98 99 96 94 96 98 98 98 99 93 80 67 63 64 61 58 58 58 57 63 76 90 99 101 97 90 90 95 98 98 99 100 99
99 100 100 100 100 100 97 90 86 87 90 95 99 100 100 100 99 98 100 100 100 99 97 94 96 100 100 97 93 88 85 83 82 88 96 97 95 97 100 100 100 100 100 99 97 96 97 100 100 99 99 90 72 60 63 66 61 57 57 59 63 72 81 89 95 98 95 89 90 95 98 97 99 100
100 100 99 100 101 101 98 93 88 86 86 90 95 99 100 100 100 98 98 97 99 101 99 97 98 99 98 96 90 83 82 82 80 83 90 96 97 96 96 98 100 99 98 99 99 97 99 101 99 99 103 97 79 68 73 79 77 70 63 60 65 74 78 78 85 97 100 92 88 95 98 95 97 101
98 102 101 99 99 100 99 97 94 91 87 86 91 99 101 100 100 100 96 93 95 100 100 99 100 100 97 93 88 83 82 84 84 85 89 95 99 98 97 96 94 92 92 94 95 96 98 97 96 98 98 88 76 79 91 96 93 87 75 63 63 73 78 76 81 95 102 94 87 92 96 94 98 101
92 97 99 100 99 99 100 101 99 98 94 88 90 99 101 99 100 101 95 90 94 100 101 100 101 101 97 90 85 82 83 86 89 90 90 93 96 97 97 95 92 89 89 89 90 94 95 92 91 93 92 83 79 90 101 100 93 90 83 72 66 71 77 79 83 94 100 94 88 92 96 95 96 98
94 91 90 93 95 94 97 97 94 94 98 95 93 98 101 99 100 100 94 92 97 100 100 100 101 99 93 85 81 82 86 90 91 91 91 92 93 94 94 93 94 95 95 94 95 97 94 93 94 95 94 92 93 98 103 98 88 84 85 82 76 73 76 80 85 92 97 97 95 97 97 95 97 98
99 96 92 92 92 91 94 94 88 88 97 101 97 97 99 99 100 100 97 97 100 101 99 101 99 92 85 81 81 85 90 94 94 92 92 93 94 95 95 96 97 100 101 99 100 100 98 97 97 94 92 96 98 100 102 98 86 80 85 92 90 83 80 83 87 91 94 96 98 97 95 95 97 95
97 100 99 99 98 97 98 97 90 87 94 101 100 99 99 98 99 101 100 100 100 100 100 99 93 85 81 82 84 89 95 99 99 96 93 93 95 96 97 98 99 100 101 100 99 99 100 98 96 94 96 99 100 100 99 93 85 82 86 93 96 93 89 88 91 94 96 97 95 94 97 99 95 89
96 100 100 100 101 101 101 101 98 94 95 99 100 100 100 99 98 99 100 100 100 101 99 94 86 82 82 83 85 90 97 101 100 96 93 92 95 96 96 97 98 97 98 99 97 96 96 94 93 97 100 98 99 102 97 86 82 87 92 94 97 98 93 87 87 93 99 99 96 96 100 100 95 92
97 100 100 100 101 101 100 101 101 98 94 96 99 100 99 99 99 100 100 100 100 98 93 87 83 82 84 86 87 90 94 96 96 95 93 93 96 98 98 99 100 97 96 94 89 89 93 95 95 98 97 91 93 101 98 85 82 91 97 97 98 100 96 88 86 92 98 100 99 99 99 98 97 97
Wind_Speed
35 35 35 36 36 35 34 35 35 35 36 37 37 37 36 34 33 30 30 33 32 32 32 33 33 32 31 29 28 27 27 27 27 28 29 30 31 32 32 32 31 30 30 29 28 27 25 24 23 22 22 22 23 23 21 19 18 20 23 27 32 36 37 37 32 25 16 22 47 66 71 63 56 59
35 35 35 36 36 35 34 35 35 34 34 35 36 37 37 36 36 33 33 35 34 32 33 34 33 32 32 31 30 29 27 26 27 29 31 32 33 35 36 35 34 31 29 27 26 25 23 22 22 22 22 21 23 25 24 21 19 19 20 23 29 35 37 35 31 27 19 9 30 51 64 64 59 57
35 36 36 36 36 35 35 36 36 36 35 35 35 36 36 36 37 36 35 36 36 34 34 35 34 34 34 33 33 32 31 30 30 31 32 34 35 36 37 36 33 30 26 24 24 23 21 21 21 21 22 23 25 28 27 24 20 18 18 20 26 33 36 35 31 27 22 9 9 28 48 61 61 58
36 37 37 37 37 35 35 36 36 37 37 37 37 36 36 36 37 36 36 38 39 37 36 37 37 36 36 36 36 36 35 34 32 31 30 32 34 35 35 33 30 27 24 22 22 21 20 19 20 20 22 24 26 28 29 25 20 18 18 19 23 28 34 35 32 25 23 18 11 5 26 54 59 52
38 38 38 38 37 36 36 36 36 36 36 37 38 38 37 37 37 36 37 39 41 41 40 39 39 38 37 38 38 37 36 34 31 28 27 27 28 30 30 29 27 25 22 21 20 19 18 18 19 21 22 24 25 26 28 26 23 20 19 18 19 24 29 33 32 24 22 21 19 22 11 38 55 46
38 39 39 39 38 36 37 37 36 35 35 35 37 38 38 38 37 37 37 38 40 41 41 39 38 38 37 38 38 37 35 33 29 26 23 22 24 25 26 25 24 23 20 19 19 18 18 18 19 20 21 23 23 25 27 28 26 24 20 16 17 21 25 27 30 26 19 23 19 25 23 10 41 43
38 39 40 39 38 37 38 38 37 36 34 34 35 36 37 38 38 37 38 38 39 40 41 39 38 38 38 38 37 35 34 31 27 23 21 20 22 22 23 24 23 22 19 18 18 18 18 18 18 19 19 21 22 24 26 27 27 25 20 16 15 18 20 21 25 26 21 23 20 21 27 12 26 40
37 38 40 39 37 37 39 39 37 35 34 33 33 34 35 36 37 37 37 38 38 39 40 40 38 38 37 36 35 34 32 28 25 23 20 20 21 21 22 22 22 21 19 18 18 18 18 17 17 17 18 20 21 22 24 26 26 25 21 17 14 15 17 17 19 22 24 25 22 18 26 22 18 34
37 37 38 38 37 37 39 39 37 35 34 33 32 32 33 34 35 36 36 36 36 37 38 39 37 37 36 36 35 33 31 28 25 23 20 20 21 21 21 21 21 21 20 19 19 18 18 17 16 16 16 18 20 20 22 23 25 25 22 18 15 15 15 15 15 17 21 25 23 16 21 25 19 25
36 36 36 37 37 37 38 38 36 35 33 32 31 31 31 32 33 34 35 36 36 36 38 38 37 37 36 36 35 33 30 28 26 23 21 20 20 20 21 20 19 19 19 19 18 18 18 16 16 16 15 16 18 18 20 21 22 25 23 20 17 15 15 14 13 14 17 22 22 15 15 21 22 23
35 35 36 36 37 37 38 37 35 34 33 32 31 30 30 31 33 34 35 35 36 36 38 38 38 37 36 35 34 31 29 28 26 24 23 23 20 18 19 19 18 18 18 17 17 17 17 16 15 15 14 14 15 16 18 19 20 22 23 22 20 17 15 14 12 11 13 17 20 15 10 14 19 24
34 35 35 35 36 37 37 36 34 33 32 31 30 30 29 30 32 34 35 35 36 36 37 37 37 36 35 35 33 31 29 28 25 21 22 25 22 19 19 18 17 18 17 17 16 14 15 15 14 14 12 12 12 13 15 16 17 20 22 23 22 19 17 15 12 10 10 12 16 14 9 10 14 20
35 35 35 35 35 36 36 35 34 33 32 31 30 29 28 29 30 32 34 35 36 36 37 38 37 36 36 35 33 31 29 27 25 21 22 23 21 19 19 17 15 16 16 16 13 9 11 13 12 11 11 10 10 10 11 13 14 16 19 22 23 21 19 16 11 9 8 8 12 12 9 7 8 14
37 35 35 35 35 35 35 35 34 33 32 31 29 27 27 28 29 30 32 34 35 36 37 38 38 38 38 35 33 31 28 26 24 22 21 21 18 17 18 14 9 11 14 13 8 4 7 9 8 8 9 8 9 8 8 9 10 11 14 18 21 21 20 18 13 9 8 6 7 8 6 5 3 9
37 36 35 35 35 36 35 34 34 33 32 31 29 27 26 26 27 28 30 31 31 32 33 34 34 36 36 32 31 30 27 24 22 20 19 18 15 14 15 11 5 6 10 10 4 1 5 7 5 5 8 8 8 7 6 6 6 6 8 13 19 20 20 21 17 12 9 7 5 5 4 4 3 6
35 34 34 34 35 35 35 34 33 33 31 30 28 27 26 25 24 24 25 27 27 28 28 28 29 29 29 27 26 25 23 20 18 18 17 15 11 11 13 12 7 5 7 8 2 1 2 4 3 4 6 6 7 6 4 4 4 4 4 7 14 18 20 21 21 17 12 9 7 5 3 2 2 5
34 32 31 32 33 33 33 33 33 32 31 29 28 27 26 25 24 23 22 23 23 24 24 24 24 22 21 21 20 17 16 16 16 16 14 10 10 11 13 12 8 5 5 5 1 2 1 3 3 3 5 5 5 5 3 3 3 3 2 3 8 14 18 20 21 20 15 11 9 7 5 3 0 5
34 32 30 30 30 30 30 31 31 31 31 30 28 27 27 27 26 24 24 23 22 22 22 22 21 19 18 18 15 12 13 15 15 13 11 9 10 11 10 9 7 4 3 3 2 4 4 4 4 4 4 4 4 4 4 3 2 3 5 3 4 9 14 18 20 20 17 14 11 10 7 5 2 5
34 32 31 31 30 28 27 27 27 28 29 29 28 28 28 28 28 27 26 25 25 24 24 22 20 20 18 17 14 12 15 15 13 10 10 10 9 9 6 5 4 1 2 2 1 4 7 7 6 4 4 6 6 5 5 6 6 6 7 6 6 6 9 13 16 18 17 15 13 12 10 8 4 3
32 32 32 32 30 29 27 25 23 24 27 27 27 28 28 28 29 29 27 26 25 25 24 22 19 18 18 15 12 13 15 14 11 10 9 7 5 5 5 3 1 2 1 2 2 5 9 10 9 6 7 8 8 6 6 7 8 8 8 8 7 7 7 9 12 14 16 15 14 14 13 10 7 4
30 31 33 33 31 30 28 25 22 21 23 25 27 27 28 28 29 29 28 26 24 23 22 20 15 10 12 13 12 14 14 12 10 9 6 1 4 6 6 4 0 3 2 3 2 5 8 11 11 7 8 9 10 9 9 8 8 7 7 6 6 7 7 7 9 12 14 15 15 15 15 13 9 7
29 31 33 33 32 31 28 25 22 21 21 25 27 27 27 28 29 29 28 27 25 22 21 21 16 10 8 10 11 13 14 12 10 9 4 0 7 9 7 7 4 0 2 3 1 4 6 8 10 7 7 8 10 13 13 9 7 7 5 4 4 5 5 5 6 9 11 13 14 14 15 14 11 9
28 32 34 33 33 31 28 25 24 21 20 24 29 29 27 27 28 28 27 27 25 22 20 22 22 18 15 15 14 12 13 14 14 13 9 8 10 11 8 9 8 3 2 2 1 2 3 4 8 10 8 7 10 13 15 12 9 8 4 2 3 3 3 3 5 7 9 11 12 12 12 13 13 11
28 33 35 34 32 30 28 25 24 22 21 24 28 30 29 29 28 26 25 25 23 20 18 20 23 25 23 21 19 17 15 15 16 16 15 14 14 14 13 13 12 9 5 3 2 4 5 3 6 9 10 10 10 13 15 14 12 10 6 3 1 2 3 4 5 7 9 10 11 10 9 10 12 12
29 34 35 34 31 28 27 26 25 23 22 24 27 30 29 27 25 23 22 22 21 19 18 18 21 25 27 26 25 24 22 20 19 18 18 18 18 18 18 17 16 12 7 6 4 6 5 3 4 6 8 9 11 12 14 15 14 11 8 5 3 1 1 3 5 6 8 10 11 10 9 9 10 12
31 34 34 33 30 26 25 25 24 23 23 24 27 28 26 23 22 22 20 19 19 18 17 17 19 22 25 26 28 28 27 25 23 22 21 21 21 21 20 18 16 11 6 7 5 7 5 3 5 7 8 9 10 12 13 14 15 12 8 6 6 6 4 3 4 5 6 8 9 10 9 8 8 9
31 33 33 30 27 25 24 24 24 24 24 25 28 28 25 20 20 21 20 19 18 17 16 18 19 19 20 21 22 23 22 20 18 17 16 17 18 19 17 16 14 10 7 7 7 7 7 6 4 6 7 8 9 10 12 14 15 13 10 7 7 7 7 6 3 1 2 5 7 9 9 9 7 6
30 30 30 27 25 24 25 24 24 26 25 25 27 28 26 22 19 20 20 18 16 16 17 19 20 20 19 18 16 14 12 11 11 12 13 14 15 14 13 12 11 10 9 10 9 9 10 8 4 4 6 6 7 8 10 12 14 14 14 11 8 7 8 9 7 4 2 2 4 7 8 8 7 6
29 28 25 23 23 23 23 23 23 25 26 26 27 28 27 25 24 23 21 18 16 16 18 21 21 20 18 16 13 10 8 9 10 11 12 13 14 13 12 11 10 10 11 11 10 10 10 8 5 5 6 4 5 7 8 10 11 13 15 14 11 9 9 10 9 8 6 3 1 3 5 6 6 5
25 25 22 21 22 21 21 21 22 23 23 25 27 28 27 26 27 27 25 20 18 19 20 22 21 18 16 13 11 10 10 9 7 8 9 11 12 12 12 11 9 9 11 11 11 11 10 8 6 6 5 4 3 4 6 7 9 11 13 14 13 12 10 10 10 11 11 10 8 6 5 5 5 5
21 23 22 21 20 19 18 20 21 22 22 23 25 27 27 27 28 30 28 23 20 21 23 21 18 16 14 13 12 12 12 10 7 7 7 8 9 10 11 12 11 10 11 12 12 12 12 10 8 7 6 4 1 2 3 5 7 8 10 12 13 14 14 12 10 10 12 13 11 9 8 7 5 5
18 23 23 23 22 19 19 21 21 21 22 23 24 26 27 27 28 29 28 24 22 23 23 19 17 15 14 14 13 12 11 11 9 9 7 6 7 8 9 11 11 11 11 12 13 13 13 11 9 8 7 6 3 2 1 2 4 5 8 9 9 11 13 14 11 9 9 10 10 9 8 7 6 6
15 22 24 25 25 22 21 23 23 22 22 22 23 25 25 25 26 29 30 28 25 24 23 20 17 15 13 13 14 12 10 11 11 11 10 8 8 8 8 8 7 6 7 9 11 12 12 11 10 8 8 7 6 4 2 1 2 3 5 6 5 6 9 11 12 11 9 8 9 10 9 7 7 7
15 21 25 26 26 24 22 23 24 24 22 20 22 24 24 23 23 26 30 30 26 25 24 21 18 17 15 15 14 12 10 11 11 11 11 12 12 11 10 9 6 4 3 4 7 8 8 8 7 5 5 7 8 6 3 2 2 2 2 4 4 3 6 9 10 9 9 8 7 7 8 7 6 5
17 21 25 26 25 24 22 21 22 24 22 19 18 21 24 25 24 25 29 31 28 26 25 22 19 18 18 17 14 11 10 11 13 13 12 12 12 12 12 12 11 8 5 3 4 5 4 6 5 3 3 6 8 7 6 4 3 2 1 3 3 3 4 7 7 6 8 9 7 6 8 8 5 4
17 19 22 24 24 23 22 20 19 22 23 20 16 17 20 23 25 26 28 30 29 27 25 23 20 20 20 18 15 13 12 13 15 17 16 14 13 11 10 12 12 10 8 6 3 3 4 4 4 3 4 7 7 7 6 5 5 4 2 1 3 4 6 7 5 3 5 7 7 7 8 8 7 5
18 18 19 22 22 21 20 18 17 19 23 22 17 15 17 20 22 24 24 25 26 26 25 23 21 21 20 18 15 13 13 13 16 20 20 18 16 14 12 11 10 10 8 6 4 5 5 6 6 6 5 7 7 6 4 4 5 5 4 3 3 4 5 6 5 3 2 4 6 7 6 6 8 7
18 19 19 20 21 19 17 15 14 15 21 24 20 14 14 17 19 22 23 22 23 25 26 25 23 21 20 18 15 12 12 13 15 19 23 22 20 20 18 15 13 12 11 9 8 7 6 6 8 8 6 7 6 3 1 2 1 3 4 4 5 6 6 5 6 6 3 1 4 5 5 6 9 8
12 19 20 20 20 19 16 14 12 11 16 23 22 16 13 16 17 20 22 22 22 25 28 26 24 22 19 17 14 12 12 13 13 16 20 22 21 21 21 20 18 16 14 13 12 11 9 9 9 8 8 9 6 1 3 2 1 3 5 6 7 7 8 8 7 7 6 3 2 5 5 4 6 6
2 10 17 20 21 20 17 15 12 8 11 18 22 17 14 16 18 19 20 21 23 27 29 26 23 21 18 15 14 13 13 13 13 13 15 17 18 19 20 21 22 20 19 18 16 15 14 12 10 9 8 8 5 3 5 5 3 3 4 6 8 8 9 9 9 9 8 5 2 5 4 2 3 5
1 1 7 13 19 22 21 18 15 11 9 13 19 18 14 16 19 18 19 22 26 29 27 23 20 18 15 14 14 14 13 13 13 12 12 13 14 15 16 18 20 19 18 17 16 16 15 12 9 8 7 7 7 7 8 7 4 4 3 5 8 9 9 9 10 10 9 6 3 3 3 2 4 5
2 2 2 4 8 15 21 21 20 19 13 11 17 19 16 16 18 19 22 26 28 26 23 20 17 14 13 13 14 14 13 13 13 12 12 11 12 13 14 15 17 18 18 17 16 15 14 13 11 11 10 10 10 9 8 8 6 5 4 5 7 9 9 9 9 9 10 10 8 5 2 1 4 6
2 3 5 5 4 7 14 18 22 25 20 12 13 18 19 19 20 23 27 29 26 23 20 17 14 13 13 13 13 14 14 15 14 13 13 12 12 12 13 14 15 16 17 18 19 18 16 14 13 12 11 11 11 9 9 10 9 7 4 5 6 8 9 9 9 8 8 9 10 8 4 2 3 4
4 4 6 7 5 7 13 15 19 24 22 13 10 15 20 21 22 25 28 28 24 21 18 15 13 13 13 12 13 14 15 16 15 14 14 14 13 12 12 13 14 14 14 15 17 18 18 17 15 11 9 9 10 10 11 12 10 9 6 6 5 6 6 6 7 7 7 7 7 8 7 5 3 5
5 5 4 5 4 8 14 15 15 18 20 14 11 14 20 22 24 26 27 24 21 18 15 13 13 13 12 12 11 12 14 16 16 15 15 15 14 13 12 12 13 12 11 10 12 14 16 16 14 12 11 11 11 11 12 12 10 8 6 6 5 6 6 3 4 5 8 7 6 7 8 6 5 6
Wind_Direction
271 271 271 270 270 268 265 264 262 260 259 257 256 255 255 258 261 263 265 265 266 268 271 272 273 276 278 279 281 284 282 277 276 278 278 280 282 284 287 288 289 291 291 291 288 285 285 284 285 280 273 274 274 271 271 273 274 266 261 264 264 265 276 292 311 337 330 252 230 227 230 234 231 227
270 270 270 270 270 269 267 266 264 262 260 258 257 256 255 256 257 259 263 267 267 267 270 272 273 276 278 279 282 283 280 275 274 275 274 277 279 281 284 285 288 291 291 290 287 284 282 281 282 281 274 272 270 263 260 263 264 259 259 263 261 261 271 289 313 343 355 278 227 224 224 223 222 222
270 269 269 269 269 269 268 266 265 263 261 260 259 258 256 256 257 258 261 265 267 266 268 271 272 276 278 279 283 284 282 280 279 278 276 275 276 278 281 284 287 289 288 287 285 282 279 277 279 281 277 271 263 257 256 258 258 256 261 264 259 260 267 282 308 343 9 25 208 221 220 214 216 221
270 269 269 268 268 268 267 265 264 262 261 260 259 258 258 257 256 257 258 261 264 265 267 271 273 275 277 279 282 285 285 285 285 284 281 278 277 278 280 283 285 285 285 284 283 280 276 275 277 278 277 272 264 258 256 257 260 263 267 264 258 261 264 273 296 333 11 38 59 316 233 211 210 216
271 269 268 268 267 267 266 265 263 262 261 259 258 256 256 257 256 257 257 260 264 266 267 269 271 273 275 278 281 284 285 287 288 287 285 282 280 280 280 282 283 284 285 283 281 279 274 271 275 276 277 276 268 261 257 256 258 258 257 257 257 262 262 267 283 312 360 23 39 22 321 210 203 207
272 270 269 268 267 267 267 266 265 264 262 259 257 255 254 254 255 256 257 259 263 266 266 267 270 272 274 277 280 283 285 288 289 287 283 281 280 280 281 283 284 285 285 284 279 276 271 268 272 275 277 278 272 264 258 254 254 253 251 253 255 260 263 267 277 290 333 1 19 26 15 198 193 197
274 271 269 268 268 267 267 267 266 265 263 260 257 255 253 253 254 254 256 258 261 264 266 267 269 271 273 276 279 281 285 287 289 287 283 282 281 282 283 284 285 286 285 283 277 273 271 267 268 273 274 276 274 267 261 255 253 253 250 252 253 260 267 269 275 280 298 331 355 22 26 55 175 191
274 270 270 268 268 267 266 267 267 266 264 262 259 257 254 253 253 254 255 257 259 262 264 266 268 270 272 275 278 280 284 286 286 286 285 285 285 284 285 285 286 287 284 281 274 270 268 263 262 267 270 273 273 271 267 259 254 252 246 245 247 256 267 269 274 279 283 302 330 12 34 55 145 187
273 270 269 269 267 267 266 266 267 266 265 263 261 259 256 253 253 253 254 255 257 259 262 264 266 269 272 275 277 279 282 284 285 286 285 287 288 286 284 283 284 284 281 278 274 269 266 262 260 264 267 271 273 274 273 265 256 253 246 241 242 246 258 266 272 279 281 292 314 354 32 51 101 164
273 271 268 268 267 265 266 266 266 267 266 264 263 260 258 255 254 253 253 254 255 256 259 262 265 268 270 272 274 277 280 283 285 287 287 288 287 286 285 283 280 279 279 279 276 270 266 263 262 265 267 272 275 275 277 272 260 254 247 240 239 240 247 258 267 277 281 289 307 337 18 40 77 126
273 272 268 267 266 264 265 265 265 266 266 266 265 263 260 257 254 253 253 253 255 256 259 261 263 266 268 269 272 275 278 281 283 288 293 292 287 285 286 285 282 280 277 276 274 271 269 266 264 267 267 270 276 276 278 278 266 254 246 240 238 237 238 247 259 275 283 289 303 323 357 26 62 102
272 272 269 268 266 265 264 265 265 265 266 266 266 265 261 257 253 252 252 252 254 255 257 259 261 263 265 266 270 273 276 279 282 289 295 292 290 290 289 291 292 288 278 270 269 270 272 270 268 271 273 272 276 276 277 281 274 257 246 239 237 236 235 241 250 265 279 290 301 317 344 13 50 89
269 270 270 268 268 266 264 264 264 265 266 265 265 264 260 256 253 252 250 251 252 253 254 256 257 259 261 263 267 270 273 279 283 288 290 287 288 290 291 296 300 294 283 274 272 275 276 274 273 278 280 273 268 269 271 277 278 265 251 241 238 237 235 237 242 251 263 282 298 315 341 1 42 84
266 267 269 269 268 266 264 264 263 263 265 265 265 264 259 254 251 250 250 249 250 251 252 253 254 255 258 262 265 269 273 279 282 284 283 281 283 287 292 298 297 291 289 282 276 274 273 274 279 284 283 272 263 261 263 271 276 272 260 247 240 238 238 237 234 235 240 252 282 305 338 355 34 92
266 266 268 269 267 265 263 262 261 262 263 263 264 263 258 254 249 246 245 246 246 247 248 250 252 254 257 261 265 268 272 276 278 277 274 274 277 285 295 302 297 290 293 286 271 210 261 273 289 291 283 275 270 264 264 275 276 276 275 260 245 240 240 240 234 226 220 214 233 274 319 351 19 100
267 267 268 268 266 263 262 261 261 261 261 262 262 260 255 251 247 244 242 241 241 242 245 248 251 253 258 262 263 266 270 271 270 267 264 265 272 284 298 305 311 308 293 287 289 131 260 282 306 308 295 290 287 279 275 290 286 276 294 281 257 245 240 242 239 230 218 204 200 222 265 310 16 83
265 265 266 266 265 263 261 260 259 259 260 260 259 256 250 242 239 240 243 244 243 241 241 244 248 250 254 258 260 262 262 258 255 254 252 254 264 279 296 308 317 318 289 289 347 81 341 332 342 324 318 319 316 302 289 309 305 263 262 293 271 254 244 243 243 238 228 212 194 196 225 249 90 76
261 262 264 266 265 264 262 259 257 257 258 259 257 254 246 237 231 231 234 239 243 243 240 239 243 246 249 253 255 249 241 240 240 240 238 241 261 280 301 319 329 326 288 289 63 70 24 10 14 343 339 359 353 319 283 274 273 236 226 232 253 256 250 245 245 245 239 225 206 200 216 233 194 95
258 259 263 264 264 264 263 260 258 256 257 258 256 251 244 236 231 229 226 225 228 236 241 241 241 242 245 251 250 238 232 233 228 225 233 246 269 293 316 340 344 309 259 268 40 49 35 26 21 16 24 31 18 347 307 278 266 249 236 231 227 238 249 247 246 248 247 237 223 219 227 229 211 125
257 257 259 261 261 262 263 262 259 257 257 256 253 247 240 235 232 229 227 223 221 227 238 249 251 245 241 245 239 225 226 227 221 227 241 251 287 317 335 359 74 179 232 291 327 26 32 22 16 42 68 49 34 17 349 314 287 270 249 238 235 233 239 246 246 247 250 246 237 237 243 236 215 191
259 257 257 258 259 260 260 261 261 260 255 251 249 243 236 233 232 228 226 226 225 225 233 250 259 242 221 225 225 221 223 221 216 222 220 204 333 328 338 355 68 178 245 295 332 15 19 13 15 51 81 57 42 37 17 346 316 299 268 244 247 245 240 246 250 248 248 249 247 245 249 248 225 200
260 258 256 256 256 257 259 259 260 261 250 240 241 239 233 230 229 226 224 225 224 223 225 234 244 241 228 231 230 225 223 220 218 218 196 9 310 304 317 335 336 196 229 261 326 13 4 5 15 39 80 70 52 43 30 9 348 337 307 258 251 251 240 241 254 253 247 246 249 248 248 250 240 215
258 255 254 252 252 255 258 255 255 259 250 235 233 234 232 228 224 221 223 225 226 225 220 219 224 232 241 249 249 237 223 218 226 240 254 275 284 285 295 314 320 312 233 240 302 347 324 359 23 26 35 47 48 45 42 36 28 21 1 279 229 221 224 225 239 246 240 235 241 246 246 246 244 236
255 252 250 249 251 253 253 251 251 252 244 232 229 229 227 223 220 219 221 225 230 234 231 221 216 218 222 230 239 244 241 233 232 241 254 262 267 274 281 290 296 284 236 205 257 282 286 337 36 29 16 10 18 35 48 51 47 43 41 45 158 225 240 239 238 241 236 228 227 233 239 240 239 241
253 250 249 248 250 251 249 249 249 243 234 227 228 230 225 219 219 222 223 224 229 239 244 234 220 217 218 218 221 228 235 239 239 239 246 254 261 268 270 271 276 267 216 184 239 276 288 339 21 23 17 12 13 27 46 57 57 52 51 59 61 27 292 262 262 253 236 226 222 222 226 231 233 235
251 250 249 249 250 248 246 246 241 234 228 224 225 230 227 220 219 223 224 226 231 239 242 232 219 216 218 219 220 223 226 230 235 237 238 243 250 256 258 258 261 253 194 174 238 276 286 317 344 352 3 13 19 28 41 53 58 59 63 70 61 46 35 349 296 269 239 225 217 214 215 219 224 227
251 249 248 248 248 245 245 243 235 229 227 223 221 226 228 223 220 223 226 227 230 234 233 223 213 209 211 215 219 221 223 225 230 234 235 237 244 250 253 256 257 248 208 202 234 263 271 273 300 326 335 352 13 30 41 46 50 55 64 70 57 40 38 37 21 313 253 228 211 207 210 209 210 211
248 247 247 248 246 244 246 243 232 227 226 222 219 221 224 224 221 222 224 222 221 227 225 215 207 203 204 208 210 214 220 226 230 235 238 239 243 249 254 256 254 239 219 218 229 244 253 254 258 281 297 326 358 22 39 44 45 51 57 62 55 43 47 56 63 60 19 264 215 207 206 203 202 203
245 246 247 247 245 244 242 236 229 225 224 222 219 217 218 222 221 219 219 217 218 222 218 209 205 202 202 205 208 210 217 226 230 233 236 237 238 244 248 248 241 225 213 214 223 233 240 241 235 245 266 301 350 13 30 40 46 51 54 52 50 50 52 56 62 62 53 41 78 188 191 189 189 194
242 243 242 241 238 236 231 224 222 222 220 219 219 217 216 218 218 218 218 218 218 216 210 205 202 198 196 198 199 199 200 205 213 219 226 233 235 237 242 241 231 215 208 211 220 227 233 236 238 253 273 297 349 8 22 39 48 51 50 45 46 48 44 44 55 64 65 68 75 90 115 145 162 167
230 231 233 232 226 221 219 215 215 218 217 215 216 218 218 216 215 218 221 220 216 211 206 202 195 189 192 195 192 192 194 190 188 192 200 218 227 229 236 239 234 224 216 215 220 225 229 233 239 252 271 284 307 338 3 33 47 50 49 47 49 50 44 42 55 72 71 69 74 83 90 102 121 133
211 215 221 221 214 211 214 213 213 217 219 217 214 215 217 216 215 218 221 220 216 210 203 196 190 190 194 195 191 191 191 190 197 203 199 201 211 217 230 240 240 233 223 217 218 224 227 231 237 250 266 277 271 253 309 11 30 47 58 64 67 63 53 48 56 71 72 66 69 77 86 99 113 129
196 204 210 210 208 209 212 212 213 216 218 218 215 212 214 215 214 216 218 216 212 208 200 192 193 198 199 196 197 200 197 195 206 216 215 210 209 211 226 243 242 230 217 209 212 222 226 227 235 247 261 270 271 259 244 290 343 29 69 89 94 76 63 57 56 60 62 63 69 72 71 78 94 117
181 193 202 204 204 207 210 211 214 216 216 216 215 213 214 213 210 213 216 213 207 202 196 192 197 205 206 202 203 208 209 207 212 216 214 218 224 224 230 243 251 248 226 182 183 199 209 211 219 239 259 267 271 271 256 239 265 336 60 100 109 85 70 65 56 51 52 56 67 76 75 74 75 83
171 184 197 202 204 207 210 211 213 217 218 213 210 213 216 214 210 210 211 209 207 201 196 195 201 208 207 205 208 220 225 219 217 215 212 221 236 236 234 242 251 255 255 218 170 166 183 194 198 219 274 275 269 266 260 244 230 253 340 93 118 126 91 70 54 40 46 54 64 81 86 87 84 76
170 177 192 200 203 207 211 212 212 216 218 212 205 209 214 212 212 211 208 207 208 205 199 199 204 207 207 210 219 231 236 227 222 219 216 219 227 226 223 234 246 253 259 257 220 180 190 200 204 234 284 287 271 258 258 256 236 226 225 158 138 140 121 101 88 51 34 48 67 79 79 83 88 87
178 174 184 196 203 206 209 213 216 219 218 213 205 207 212 211 212 214 209 207 211 212 205 201 204 206 208 214 223 234 238 232 225 224 222 218 218 217 215 216 222 228 237 239 217 204 213 219 219 230 273 297 284 261 255 263 253 241 229 200 163 150 144 132 123 112 47 46 69 78 78 89 93 83
193 183 179 186 199 206 208 213 219 222 220 215 207 205 213 212 210 211 208 206 212 215 209 204 205 207 209 217 228 239 241 235 227 225 225 221 218 221 226 225 220 217 217 216 214 216 223 227 225 229 256 279 277 270 60 70 207 232 228 203 173 167 174 170 147 142 152 65 68 84 92 95 91 79
204 199 192 186 190 195 197 202 213 223 223 217 209 207 215 214 209 207 206 205 210 213 208 203 204 207 211 222 236 242 236 230 226 223 223 222 222 224 229 234 234 231 225 221 220 220 220 224 228 235 248 254 246 245 21 13 162 193 216 207 188 180 187 188 169 159 177 206 121 111 114 107 102 98
203 206 207 204 201 196 188 185 191 209 224 218 210 210 220 219 207 202 202 204 206 206 202 198 201 207 216 228 238 237 227 221 219 215 212 215 219 222 227 233 237 238 235 232 232 233 231 232 237 244 254 260 258 280 303 286 228 182 205 212 201 194 194 193 184 178 188 203 156 119 121 136 147 142
358 212 214 218 220 218 212 201 194 200 217 214 207 209 220 218 207 201 201 202 201 197 195 197 203 212 223 232 233 231 224 215 212 212 209 209 213 219 225 230 231 232 232 232 234 237 235 233 237 240 245 257 261 267 275 266 221 170 179 205 206 206 205 202 196 190 186 181 156 136 132 133 152 162
259 268 246 242 238 229 225 219 211 211 214 204 202 209 214 209 207 205 199 196 195 195 196 202 209 217 227 229 225 223 218 210 210 214 216 216 218 220 225 228 225 222 220 219 221 225 224 220 222 226 230 235 240 247 253 244 219 188 175 185 199 208 210 211 211 202 190 182 177 172 156 122 158 169
249 253 250 267 273 227 214 212 213 216 217 207 205 213 210 200 202 204 196 192 194 198 201 207 214 220 224 223 218 215 212 211 215 218 219 221 223 223 226 228 225 220 218 216 217 217 213 212 218 224 226 221 216 220 230 226 217 217 204 178 192 211 213 213 218 214 201 193 184 173 172 196 175 161
269 279 262 266 267 214 200 201 209 217 220 213 207 215 210 199 199 201 196 193 196 199 202 209 218 220 220 219 216 214 214 216 219 222 221 221 222 222 224 223 220 218 217 217 218 216 212 213 220 225 221 207 199 208 222 220 218 224 210 173 185 215 215 218 229 217 198 193 182 174 187 207 178 148
288 288 272 268 253 205 198 199 204 215 220 216 209 215 211 201 196 195 193 191 194 198 203 213 219 219 220 221 220 220 221 222 222 220 219 219 219 220 220 217 213 212 210 206 207 206 203 207 215 220 224 223 216 215 222 223 221 220 199 172 188 210 203 215 250 212 187 184 185 189 200 196 158 152